Skip Page Navigation
NASA JPL Caltech
NASA Logo - Jet Propulsion Laboratory + View the NASA Portal
+ Center for Near-Earth Object Studies
JPL Home Earth Solar System Stars & Galaxies Technology
JPL Solar System Dynamics
BODIES ORBITS EPHEMERIDES TOOLS PHYSICAL DATA DISCOVERY FAQ SITE MAP
JPL Small-Body Database Browser
Search: [ help ]  
153201 (2000 WO107)
Classification: Aten [NEO, PHA]          SPK-ID: 2153201
Ephemeris | Orbit Diagram | Orbital Elements | Mission Design | Physical Parameters | Discovery Circumstances | Close-Approach Data ]

[ hide orbit diagram ]

For accurate long-term ephemerides, please instead use our Horizons system.This orbit viewer was implemented using two-body methods, and hence should not be used for determining accurate long-term trajectories (over several years or decades) or planetary encounter circumstances.


[ revert to old Java-based viewer ]

Orbital Elements at Epoch 2459000.5 (2020-May-31.0) TDB
Reference: JPL 117 (heliocentric ecliptic J2000)
 Element Value Uncertainty (1-sigma)   Units 
e .780703695731893 6.3643e-08  
a .9115175958958402 1.8316e-09 au
q .1998924400553076 5.8162e-08 au
i 7.770289116988794 9.2597e-06 deg
node 69.25180033141723 2.4791e-05 deg
peri 213.7185645747625 2.491e-05 deg
M 206.4502652700105 2.1637e-05 deg
tp 2459136.079048477293
(2020-Oct-13.57904848)
1.935e-05 TDB
period 317.8674162977433
0.87
9.5807e-07
2.623e-09
d
yr
n 1.132547664661519 3.4136e-09 deg/d
Q 1.623142751736373 3.2615e-09 au
  Orbit Determination Parameters
   # obs. used (total)      440  
   data-arc span      6254 days (17.12 yr)  
   first obs. used      2000-11-29  
   last obs. used      2018-01-13  
   planetary ephem.      DE431  
   SB-pert. ephem.      SB431-N16  
   condition code      0  
   norm. resid. RMS      .41332  
   source      ORB  
   producer      Giorgini  
   solution date      2020-Nov-23 13:37:24  

Additional Information
 Earth MOID = .00309773 au 
 Jupiter MOID = 3.56034 au 
 T_jup = 6.227 
[ hide covariance matrix ]
Orbital Elements at Epoch 2456124.5 (2012-Jul-16.0) TDB
Reference: JPL 117 (heliocentric ecliptic J2000)
 Element Value Uncertainty (1-sigma)   Units 
e .7806642393730191 6.367e-08  
q .1998873450876677 5.8252e-08 au
tp 2456275.611778530826
(2012-Dec-14.11177853)
1.3792e-05 TDB
node 69.31930731552451 2.4731e-05 deg
peri 213.6380310484416 2.4863e-05 deg
i 7.776983903967559 9.2636e-06 deg
  Orbit Determination Parameters
   # obs. used (total)      440  
   data-arc span      6254 days (17.12 yr)  
   first obs. used      2000-11-29  
   last obs. used      2018-01-13  
   planetary ephem.      DE431  
   SB-pert. ephem.      SB431-N16  
   condition code      0  
   norm. resid. RMS      .41332  
   source      ORB  
   producer      Giorgini  
   solution date      2020-Nov-23 13:37:24  

Additional Information
 Jupiter MOID = 3.56034 au 
 T_jup = 6.227 
Orbit Covariance (6×6)
  e q tp node peri i
e 4.053902481742815E-15 -3.708783791660416E-15 -4.931667833538173E-14 9.042381878635504E-14 -2.140185796013102E-13 6.76337034576402E-14
q -3.708783791660416E-15 3.393273973103688E-15 4.766417052189839E-14 -8.275871318533577E-14 1.953452402457158E-13 -6.165484230644377E-14
tp -4.931667833538173E-14 4.766417052189839E-14 1.902167867098185E-10 1.622767692471236E-11 2.548450197612207E-11 1.303111008715262E-11
node 9.042381878635504E-14 -8.275871318533577E-14 1.622767692471236E-11 6.116248865331168E-10 -6.016584212824779E-10 1.297797622911214E-10
peri -2.140185796013102E-13 1.953452402457158E-13 2.548450197612207E-11 -6.016584212824779E-10 6.181711914950559E-10 -1.274631853463845E-10
i 6.76337034576402E-14 -6.165484230644377E-14 1.303111008715262E-11 1.297797622911214E-10 -1.274631853463845E-10 8.5814747871195E-11

Ephemeris | Orbit Diagram | Orbital Elements | Mission Design | Physical Parameters | Discovery Circumstances | Close-Approach Data ]

Physical Parameter Table
Parameter Symbol Value Units Sigma Reference Notes
absolute magnitude H 19.3   n/a MPO169985  
diameter diameter 0.510 km 0.083 urn:nasa:pds:neowise_diameters_albedos::2.0[neos] (http://adsabs.harvard.edu/abs/2011ApJ...743..156M)  
geometric albedo albedo 0.129   0.058 urn:nasa:pds:neowise_diameters_albedos::2.0[neos] (http://adsabs.harvard.edu/abs/2011ApJ...743..156M)  
SMASSII spectral type spec_B X   n/a Binzel et al. (2004) Icarus 170, 259-294  

153201 (2000 WO107)          Discovered 2000-Nov-29 by LINEAR at Socorro
Reference: 20070402/Numbers.arcLast Updated: 2007-04-04

[ show close-approach data ]
Ephemeris | Orbit Diagram | Orbital Elements | Mission Design | Physical Parameters | Discovery Circumstances | Close-Approach Data ]
ABOUT SSD CREDITS/AWARDS PRIVACY/COPYRIGHT GLOSSARY LINKS
FirstGov 2020-Nov-28 11:39 UT
(server date/time)  
NASA Home Page
Site Manager:   Ryan S. Park
Webmaster  Alan B. Chamberlin